Regional Weather Roundup
Issued by NWS

Home | Current Version | Previous Version | Graphics & Text | Print | Product List | Glossary On
Versions: 1 2 3 4 5 6 7 8 9 10 11 12 13 14 15 16 17 18 19 20 21 22 23 24 25 26 27 28 29 30 31 32 33 34 35 36 37 38 39 40 41 42 43 44 45 46 47 48 49 50
288
ASUS43 KIND 240459
RWRIN

WEATHER ROUNDUP FOR INDIANA
NATIONAL WEATHER SERVICE INDIANAPOLIS IN
100 AM EDT WED MAY 24 2017

NOTE: "FAIR" INDICATES FEW OR NO CLOUDS BELOW 12,000 FEET WITH NO
SIGNIFICANT WEATHER AND/OR OBSTRUCTIONS TO VISIBILITY.

* - STATION DOES NOT REPORT WEATHER SUCH AS PRECIPITATION OR FOG.

+ - STATION NOT QUALITY CONTROLLED BY THE NATIONAL WEATHER SERVICE.
    USE DATA WITH CAUTION...ESPECIALLY DEWPOINT AND RELATIVE
    HUMIDITY OBSERVATIONS.

INZ001>003-010>013-019-020-240600-
NORTHWEST INDIANA

CITY           SKY/WX    TMP DP  RH WIND       PRES   REMARKS
MICHIGAN CITY+ LGT RAIN  54  54 100 CALM      29.67F
MONTICELLO +   CLOUDY    60  56  87 NW6       29.63F
RENSSELAER +   CLOUDY    57  54  88 N5        29.65F

$$

LMZ046-743>745-240600-
SOUTHERN LAKE MICHIGAN

STATION/POSITION TIME  TEMP    WIND        PRES    WAVE
                       AIR SEA DIR/SP/G            HT
                 (UTC) (F)     (DEG/KT/KT) (MB)    (FT)
BURNS HARBOR     0440   54      60/  8/ 12 1005.4F
MICHIGAN CITY    0430   54      40/  9/  9   N/A
5NW MICH CITY    0450   54 53   60/  8/ 10   N/A     1

$$

INZ004-005-014>016-021>024-240600-
NORTH CENTRAL INDIANA

CITY           SKY/WX    TMP DP  RH WIND       PRES   REMARKS
GOSHEN         CLOUDY    59  53  80 E8        29.65F
SOUTH BEND     CLOUDY    57  54  89 N5        29.66F

$$

INZ006>009-017-018-025>027-240600-
NORTHEAST INDIANA

CITY           SKY/WX    TMP DP  RH WIND       PRES   REMARKS
ANGOLA *+      PTCLDY    59  54  82 NE6       29.66F
FORT WAYNE     CLOUDY    62  49  62 NE9       29.63F
KENDALLVILLE + CLOUDY    59  54  83 E7        29.66F

$$

INZ028-029-035-036-043>045-051>053-240600-
WEST CENTRAL INDIANA

CITY           SKY/WX    TMP DP  RH WIND       PRES   REMARKS
CRAWFORDSVL +  CLOUDY    58  55  89 NW9       29.63S
GREENCASTLE +  CLOUDY    59  54  82 CALM      29.62F
LAFAYETTE      CLOUDY    59  56  89 N8        29.62F
TERRE HAUTE    CLOUDY    62  54  74 NW10      29.63F

$$

INZ030>032-037>040-046>048-054>057-064-065-240600-
CENTRAL INDIANA

CITY           SKY/WX    TMP DP  RH WIND       PRES   REMARKS
CP ATTERBURY + CLOUDY    59  55  88 CALM      29.63S
INDIANAPOLIS   CLOUDY    62  51  67 W6        29.61F
-EAGLE CREEK   CLOUDY    64  49  57 CALM      29.61F
KOKOMO +       CLOUDY    62  55  77 NE8       29.63F
SHELBYVILLE    CLOUDY    64  53  67 SW3       29.61F

$$

INZ033-034-041-042-049-050-058-059-240600-
EAST CENTRAL INDIANA

CITY           SKY/WX    TMP DP  RH WIND       PRES   REMARKS
MUNCIE         CLOUDY    64  53  67 CALM      29.62F
RICHMOND +     CLOUDY    61  54  77 SE6       29.64S

$$

INZ060-061-067>069-081>083-085>088-240600-
SOUTHWEST INDIANA

CITY           SKY/WX    TMP DP  RH WIND       PRES   REMARKS
EVANSVILLE     CLOUDY    67  54  63 NW5       29.63F
HUNTINGBURG *+ CLOUDY    63  56  78 W3        29.63F

$$

INZ062-063-066-070>080-084-089>092-240600-
SOUTH CENTRAL AND SOUTHEAST INDIANA

CITY           SKY/WX    TMP DP  RH WIND       PRES   REMARKS
BLOOMINGTON    CLOUDY    62  55  77 CALM      29.62F
MADISON *+     CLOUDY    64  55  72 CALM      29.65S
SEYMOUR +      LGT RAIN  64  57  77 CALM      29.62F

$$





USA.gov is the U.S. government's official web portal to all federal, state and local government web resources and services.